Time,TemperatureF,DewpointF,PressureIn,WindDirection,WindDirectionDegrees,WindSpeedMPH,WindSpeedGustMPH,Humidity,HourlyPrecipIn,Conditions,Clouds,dailyrainin,SoftwareType,DateUTC
2013-06-20 00:02:00,76.0,75.0,30.00,SSE,147,0.0,0.0,96,0.00,,,0.79,,2013-06-20 05:02:00,
2013-06-20 00:12:00,76.0,75.0,30.00,SSE,147,0.0,0.0,96,0.00,,,0.79,,2013-06-20 05:12:00,
2013-06-20 00:22:00,76.0,75.0,30.00,SSE,147,0.0,0.0,97,0.00,,,0.79,,2013-06-20 05:22:00,
2013-06-20 00:33:00,76.0,75.0,30.00,SSE,147,0.0,0.0,97,0.00,,,0.79,,2013-06-20 05:33:00,
2013-06-20 00:44:00,75.0,74.0,30.00,SSE,147,0.0,0.0,97,0.00,,,0.79,,2013-06-20 05:44:00,
2013-06-20 00:53:00,75.0,74.0,30.00,SSE,147,0.0,0.0,97,0.00,,,0.79,,2013-06-20 05:53:00,
2013-06-20 01:02:00,75.0,74.0,30.00,SSE,147,0.0,0.0,97,0.00,,,0.79,,2013-06-20 06:02:00,
2013-06-20 01:11:00,75.0,74.0,30.00,SSE,147,0.0,0.0,97,0.00,,,0.79,,2013-06-20 06:11:00,
2013-06-20 01:22:00,75.0,74.0,30.00,SSE,147,0.0,0.0,97,0.00,,,0.79,,2013-06-20 06:22:00,
2013-06-20 01:33:00,75.0,74.0,30.00,SSE,147,0.0,0.0,97,0.00,,,0.79,,2013-06-20 06:33:00,
2013-06-20 01:43:00,75.0,74.0,30.00,SSE,147,0.0,0.0,97,0.00,,,0.79,,2013-06-20 06:43:00,
2013-06-20 01:53:00,75.0,74.0,30.00,SSE,147,0.0,0.0,97,0.00,,,0.79,,2013-06-20 06:53:00,
2013-06-20 02:01:00,75.0,74.0,30.00,SSE,147,0.0,0.0,97,0.00,,,0.79,,2013-06-20 07:01:00,
2013-06-20 02:12:00,75.0,74.0,30.00,SSE,147,0.0,0.0,97,0.00,,,0.79,,2013-06-20 07:12:00,
2013-06-20 02:22:00,75.0,74.0,30.00,SSE,147,0.0,0.0,97,0.00,,,0.79,,2013-06-20 07:22:00,
2013-06-20 02:34:00,75.0,74.0,30.00,SSE,147,0.0,0.0,97,0.00,,,0.79,,2013-06-20 07:34:00,
2013-06-20 02:44:00,75.0,74.0,30.00,SSE,147,0.0,0.0,97,0.00,,,0.79,,2013-06-20 07:44:00,
2013-06-20 02:52:00,74.0,73.0,30.00,SSE,147,0.0,0.0,97,0.00,,,0.79,,2013-06-20 07:52:00,
2013-06-20 03:02:00,74.0,73.0,30.00,SSE,147,0.0,0.0,97,0.00,,,0.79,,2013-06-20 08:02:00,
2013-06-20 03:11:00,74.0,73.0,30.00,SSE,147,0.0,0.0,97,0.00,,,0.79,,2013-06-20 08:11:00,
2013-06-20 03:22:00,74.0,73.0,29.99,SSE,147,0.0,0.0,98,0.00,,,0.79,,2013-06-20 08:22:00,
2013-06-20 03:34:00,74.0,73.0,29.99,SSE,147,0.0,0.0,98,0.00,,,0.79,,2013-06-20 08:34:00,
2013-06-20 03:43:00,75.0,74.0,30.00,SSE,147,0.0,0.0,98,0.00,,,0.79,,2013-06-20 08:43:00,
2013-06-20 03:53:00,75.0,74.0,30.00,SSE,147,0.0,0.0,98,0.00,,,0.79,,2013-06-20 08:53:00,
2013-06-20 04:02:00,75.0,74.0,30.00,SSE,147,0.0,0.0,98,0.00,,,0.79,,2013-06-20 09:02:00,
2013-06-20 04:12:00,75.0,74.0,29.99,SSE,147,0.0,0.0,98,0.00,,,0.79,,2013-06-20 09:12:00,
2013-06-20 04:22:00,75.0,74.0,29.99,SSE,147,0.0,0.0,98,0.00,,,0.79,,2013-06-20 09:22:00,
2013-06-20 04:33:00,75.0,74.0,29.99,SSE,147,0.0,0.0,98,0.00,,,0.79,,2013-06-20 09:33:00,
2013-06-20 04:42:00,75.0,74.0,29.99,SSE,147,0.0,0.0,98,0.00,,,0.79,,2013-06-20 09:42:00,
2013-06-20 04:52:00,75.0,74.0,29.99,SSE,147,0.0,0.0,98,0.00,,,0.79,,2013-06-20 09:52:00,
2013-06-20 05:01:00,75.0,74.0,30.00,SSE,147,0.0,0.0,98,0.00,,,0.79,,2013-06-20 10:01:00,
2013-06-20 05:11:00,75.0,74.0,30.00,SSE,147,0.0,0.0,98,0.00,,,0.79,,2013-06-20 10:11:00,
2013-06-20 05:22:00,74.0,73.0,30.00,SSE,147,0.0,0.0,98,0.00,,,0.79,,2013-06-20 10:22:00,
2013-06-20 05:34:00,74.0,73.0,30.00,SSE,147,0.0,0.0,98,0.00,,,0.79,,2013-06-20 10:34:00,
2013-06-20 05:43:00,74.0,73.0,30.01,SSE,147,0.0,0.0,98,0.00,,,0.79,,2013-06-20 10:43:00,
2013-06-20 05:53:00,74.0,73.0,30.01,SSE,147,0.0,0.0,98,0.00,,,0.79,,2013-06-20 10:53:00,
2013-06-20 06:02:00,74.0,73.0,30.01,SSE,147,0.0,0.0,98,0.00,,,0.79,,2013-06-20 11:02:00,
2013-06-20 06:11:00,74.0,73.0,30.01,SSE,147,0.0,0.0,98,0.00,,,0.79,,2013-06-20 11:11:00,
2013-06-20 06:22:00,74.0,73.0,30.02,SSE,147,0.0,0.0,98,0.00,,,0.79,,2013-06-20 11:22:00,
2013-06-20 06:34:00,74.0,73.0,30.02,SSE,147,0.0,0.0,98,0.00,,,0.79,,2013-06-20 11:34:00,
2013-06-20 06:42:00,74.0,73.0,30.02,SSE,147,0.0,0.0,98,0.00,,,0.79,,2013-06-20 11:42:00,
2013-06-20 06:53:00,74.0,73.0,30.02,SSE,147,0.0,0.0,98,0.00,,,0.79,,2013-06-20 11:53:00,
2013-06-20 07:02:00,74.0,73.0,30.03,SSE,147,0.0,0.0,98,0.00,,,0.79,,2013-06-20 12:02:00,
2013-06-20 07:11:00,74.0,73.0,30.03,SSE,147,0.0,0.0,98,0.00,,,0.79,,2013-06-20 12:11:00,
2013-06-20 07:22:00,75.0,74.0,30.04,SSE,147,0.0,0.0,98,0.00,,,0.79,,2013-06-20 12:22:00,
2013-06-20 07:34:00,75.0,74.0,30.04,SSE,147,0.0,0.0,98,0.00,,,0.79,,2013-06-20 12:34:00,
2013-06-20 07:43:00,75.0,74.0,30.04,SSE,147,0.0,0.0,98,0.00,,,0.79,,2013-06-20 12:43:00,
2013-06-20 07:53:00,77.0,76.0,30.06,SSE,147,0.0,0.0,98,0.00,,,0.31,,2013-06-20 12:53:00,
2013-06-20 08:02:00,76.0,75.0,30.06,SSE,147,0.0,0.0,96,0.00,,,0.20,,2013-06-20 13:02:00,
2013-06-20 08:11:00,77.0,76.0,30.06,SSE,147,0.0,0.0,96,0.00,,,0.18,,2013-06-20 13:11:00,
2013-06-20 08:22:00,78.0,77.0,30.06,SSE,147,0.0,0.0,96,0.01,,,0.19,,2013-06-20 13:22:00,
2013-06-20 08:33:00,78.0,77.0,30.06,SSE,147,0.0,0.0,96,0.01,,,0.19,,2013-06-20 13:33:00,
2013-06-20 08:42:00,80.0,76.0,30.06,SE,126,0.0,0.0,88,0.01,,,0.19,,2013-06-20 13:42:00,
2013-06-20 08:53:00,80.0,75.0,30.07,NNE,16,6.0,8.0,86,0.01,,,0.19,,2013-06-20 13:53:00,
2013-06-20 09:01:00,80.0,75.0,30.07,NNE,16,6.0,8.0,86,0.01,,,0.19,,2013-06-20 14:01:00,
2013-06-20 09:11:00,80.0,75.0,30.07,NNE,16,6.0,8.0,86,0.01,,,0.19,,2013-06-20 14:11:00,
2013-06-20 09:22:00,80.0,75.0,30.07,NNE,16,6.0,8.0,86,0.01,,,0.19,,2013-06-20 14:22:00,
2013-06-20 09:32:00,80.0,76.0,30.07,NNW,335,0.0,5.0,88,0.00,,,0.19,,2013-06-20 14:32:00,
2013-06-20 09:42:00,80.0,74.0,30.06,NNW,335,0.0,0.0,83,0.00,,,0.19,,2013-06-20 14:42:00,
2013-06-20 09:53:00,80.0,74.0,30.06,NNW,335,0.0,0.0,83,0.00,,,0.19,,2013-06-20 14:53:00,
2013-06-20 10:00:00,85.0,75.0,30.06,SE,141,1.0,3.0,73,0.00,,,0.19,,2013-06-20 15:00:00,
2013-06-20 10:02:00,80.0,74.0,30.06,NNW,335,0.0,0.0,83,0.00,,,0.19,,2013-06-20 15:02:00,
2013-06-20 10:11:00,84.0,74.0,30.06,SE,141,1.0,3.0,73,0.00,,,0.19,,2013-06-20 15:11:00,
2013-06-20 10:22:00,85.0,75.0,30.06,SE,141,1.0,3.0,73,0.00,,,0.19,,2013-06-20 15:22:00,
2013-06-20 10:43:00,85.0,75.0,30.06,SE,141,1.0,3.0,73,0.00,,,0.19,,2013-06-20 15:43:00,
2013-06-20 10:53:00,85.0,75.0,30.06,SE,141,1.0,3.0,73,0.00,,,0.19,,2013-06-20 15:53:00,
2013-06-20 11:22:00,86.0,76.0,30.03,NW,305,1.0,6.0,73,0.00,,,0.17,,2013-06-20 16:22:00,
2013-06-20 11:33:00,86.0,76.0,30.03,NW,305,1.0,6.0,73,0.00,,,0.17,,2013-06-20 16:33:00,
2013-06-20 11:43:00,87.0,77.0,30.03,NNW,345,1.0,3.0,72,0.00,,,0.17,,2013-06-20 16:43:00,
2013-06-20 11:52:00,87.0,77.0,30.03,NNW,345,1.0,3.0,72,0.00,,,0.17,,2013-06-20 16:52:00,
2013-06-20 12:02:00,88.0,77.0,30.02,NNW,336,1.0,6.0,71,0.00,,,0.16,,2013-06-20 17:02:00,
2013-06-20 12:12:00,89.0,77.0,30.02,NNW,330,1.0,6.0,69,0.00,,,0.16,,2013-06-20 17:12:00,
2013-06-20 12:22:00,89.0,77.0,30.02,NNW,330,1.0,6.0,69,0.00,,,0.16,,2013-06-20 17:22:00,
2013-06-20 12:30:00,89.0,77.0,30.01,NW,320,3.0,7.0,69,0.00,,,0.16,,2013-06-20 17:30:00,
2013-06-20 12:32:00,89.0,77.0,30.02,NNW,330,1.0,6.0,69,0.00,,,0.16,,2013-06-20 17:32:00,
2013-06-20 12:43:00,89.0,77.0,30.02,NNW,330,1.0,6.0,69,0.00,,,0.16,,2013-06-20 17:43:00,
2013-06-20 12:52:00,89.0,77.0,30.01,NW,320,3.0,7.0,69,0.00,,,0.16,,2013-06-20 17:52:00,
2013-06-20 13:01:00,89.0,77.0,30.01,NW,320,3.0,7.0,69,0.00,,,0.16,,2013-06-20 18:01:00,
2013-06-20 13:11:00,89.0,77.0,30.01,NW,320,3.0,7.0,69,0.00,,,0.16,,2013-06-20 18:11:00,
2013-06-20 13:22:00,89.0,77.0,30.01,NW,320,3.0,7.0,69,0.00,,,0.16,,2013-06-20 18:22:00,
2013-06-20 13:53:00,92.0,75.0,30.00,NNW,330,0.0,5.0,58,0.00,,,0.04,,2013-06-20 18:53:00,
2013-06-20 14:01:00,90.0,75.0,30.00,North,10,1.0,5.0,61,0.00,,,0.01,,2013-06-20 19:01:00,
2013-06-20 14:11:00,90.0,74.0,29.99,NNW,332,2.0,7.0,59,0.00,,,0.01,,2013-06-20 19:11:00,
2013-06-20 14:22:00,91.0,74.0,29.99,WSW,249,2.0,7.0,57,0.00,,,0.01,,2013-06-20 19:22:00,
2013-06-20 14:34:00,91.0,74.0,29.99,WSW,249,2.0,7.0,57,0.00,,,0.01,,2013-06-20 19:34:00,
2013-06-20 14:43:00,91.0,74.0,29.99,WSW,249,2.0,7.0,57,0.00,,,0.01,,2013-06-20 19:43:00,
2013-06-20 14:52:00,92.0,71.0,29.97,NNW,336,3.0,8.0,50,0.00,,,0.01,,2013-06-20 19:52:00,
2013-06-20 15:02:00,92.0,71.0,29.97,NNW,336,3.0,8.0,50,0.00,,,0.01,,2013-06-20 20:02:00,
2013-06-20 15:11:00,91.0,75.0,29.97,West,272,1.0,6.0,60,0.00,,,0.01,,2013-06-20 20:11:00,
2013-06-20 15:22:00,91.0,76.0,29.97,SW,235,2.0,3.0,62,0.00,,,0.01,,2013-06-20 20:22:00,
2013-06-20 15:33:00,91.0,76.0,29.97,SW,235,2.0,3.0,62,0.00,,,0.01,,2013-06-20 20:33:00,
2013-06-20 15:42:00,91.0,76.0,29.97,SW,235,2.0,3.0,62,0.00,,,0.01,,2013-06-20 20:42:00,
2013-06-20 15:52:00,91.0,76.0,29.97,SW,235,2.0,3.0,62,0.00,,,0.01,,2013-06-20 20:52:00,
2013-06-20 16:01:00,90.0,75.0,29.96,West,268,0.0,5.0,62,0.00,,,0.01,,2013-06-20 21:01:00,